カタログに戻る

FREGAT DEB

LostUNKNOWN
NORAD 46249·DEBRIS·🇷🇺 Russia

打ち上げ Jul 18, 2011 から Baikonur Cosmodrome

Loading…

次のパス (今後24時間)

TLE

古いSource: Space-Track

元期: Aug 2, 2021, 21:46 UTC

1 46249U 11037KK  21214.90743225  .00000023  00000-0  34475-2 0  9999
2 46249  50.5496  43.9536 1327011 202.4263 151.2805  9.62197414 33775

AllMySatでFREGAT DEBをリアルタイム追跡

Download on the App Store